Temperature
18 17 17 17 17 17 17 17 17 16 16 16 16 16 16 16 16 15 15 15 15 15 15 15 15 15 15 15 15 15 15 15 15 15 14 14 14 14 14 14 14 14 14
19 17 17 17 17 17 17 17 17 16 16 17 17 16 16 16 16 15 15 15 16 16 16 16 15 15 15 15 15 15 15 15 15 15 14 14 14 14 14 14 14 14 14
19 17 17 17 17 17 17 17 17 17 17 17 17 16 16 16 16 15 15 15 16 16 16 16 16 15 15 15 15 15 15 15 15 15 14 14 14 14 14 14 14 14 14
18 17 17 17 17 17 17 17 17 17 17 17 17 16 16 16 16 16 15 16 16 16 16 16 16 15 15 15 15 15 15 15 15 14 14 14 14 14 14 13 13 13 13
18 17 17 17 17 17 17 17 17 17 17 17 17 17 16 16 16 16 16 16 16 16 16 16 16 16 15 15 15 15 15 15 14 14 14 14 14 14 13 13 13 14 14
18 17 17 16 17 17 17 17 17 17 17 17 17 17 17 16 16 16 16 16 16 16 16 16 16 15 15 15 15 15 14 14 14 14 14 14 14 14 14 14 14 14 14
18 17 16 16 16 17 17 17 17 17 17 17 17 17 17 16 16 16 16 16 16 16 16 16 16 15 15 15 15 15 14 14 14 14 14 14 14 13 14 14 14 14 14
18 17 16 16 16 16 17 17 17 17 17 17 17 17 17 17 17 17 16 16 16 16 16 16 16 15 15 15 15 14 14 14 14 14 14 14 13 13 13 14 14 14 14
17 17 16 16 16 16 16 17 17 17 17 17 17 17 17 17 17 17 17 17 16 16 16 16 16 15 15 15 15 14 14 14 14 14 14 14 13 13 13 14 14 14 14
16 16 16 16 16 16 16 16 17 17 17 17 17 17 17 17 17 17 17 17 16 16 16 16 15 15 15 15 15 14 14 14 14 14 14 13 13 13 13 13 14 14 14
15 15 16 15 16 16 16 16 16 17 17 17 17 17 17 17 17 17 17 17 17 16 16 16 15 15 15 15 15 15 14 14 14 14 13 13 13 13 13 13 13 13 14
15 15 15 15 15 15 16 16 16 16 17 17 17 17 17 17 17 17 17 17 17 16 16 16 16 15 15 15 15 15 14 14 14 14 13 13 13 13 13 13 13 13 13
16 16 15 15 15 15 16 16 16 16 16 17 17 17 17 17 17 17 17 17 17 16 16 16 16 15 15 15 15 14 14 14 14 13 13 13 13 12 12 13 13 13 13
16 16 16 15 15 15 15 16 16 16 16 16 16 16 17 17 17 17 17 16 16 16 16 16 15 15 15 15 14 14 14 14 13 13 13 13 13 12 12 12 12 12 12
16 16 16 16 15 15 15 15 15 16 16 16 16 16 16 16 16 16 16 16 16 16 15 15 15 15 15 14 14 14 14 13 13 13 13 13 12 12 12 12 12 12 12
16 16 16 15 15 15 15 15 15 15 15 15 15 15 15 15 15 15 15 15 15 15 15 15 14 14 14 14 14 14 13 13 13 13 13 12 12 12 12 12 11 11 11
17 16 16 16 15 15 15 15 15 15 15 15 15 15 15 15 15 15 15 15 15 14 14 14 14 14 14 13 13 13 13 13 13 12 12 12 12 12 12 12 11 11 11
16 16 16 15 15 15 15 15 15 15 14 14 14 14 14 14 14 14 14 14 14 14 13 13 13 13 13 13 13 13 12 12 12 12 12 12 12 12 12 11 11 11 11
16 16 16 16 15 15 15 15 15 14 14 14 14 14 14 14 14 14 14 14 13 13 13 13 13 13 13 12 12 12 12 12 12 12 12 12 12 12 12 11 11 11 11
16 16 16 16 15 15 15 15 15 14 14 14 14 14 14 14 14 14 14 14 13 13 13 13 13 12 12 12 12 12 12 12 12 12 12 12 12 12 12 11 11 11 11
16 16 16 16 16 15 15 15 15 15 14 14 14 14 14 14 14 14 14 14 13 13 13 13 13 12 12 12 12 12 12 12 12 12 12 12 12 12 11 11 11 11 10
16 16 16 16 16 15 15 15 15 15 14 14 14 14 14 14 14 14 14 13 13 13 13 13 12 12 12 12 12 11 11 11 12 12 12 12 12 11 11 11 11 10 10
16 16 16 16 16 15 15 15 15 14 14 14 14 14 14 14 14 13 13 13 13 13 13 13 12 12 12 12 11 11 10 10 10 11 11 11 11 11 11 10 10 10 10
15 15 15 15 15 15 15 15 14 14 14 14 14 14 14 13 13 13 13 13 13 13 12 12 12 12 11 11 11 11 11 10 10 9 10 10 10 10 10 10 10 9 9
15 15 15 14 14 14 14 14 14 14 14 13 13 13 13 13 13 13 12 12 12 12 12 12 12 11 11 11 10 10 10 10 9 9 9 9 9 9 9 9 9 9 8
14 13 13 13 13 13 13 13 13 13 13 13 13 12 12 12 12 12 12 12 12 11 11 11 11 11 11 10 10 10 9 9 9 9 8 8 8 8 8 8 8 8 8
Wind_Speed
6 12 18 18 18 17 16 16 16 15 15 15 14 14 14 14 14 14 14 14 15 15 15 16 16 17 17 17 17 17 16 16 15 15 14 13 13 12 12 11 10 10 11
9 15 20 18 18 17 16 16 15 15 14 13 13 13 13 14 14 14 14 14 14 14 15 15 16 16 16 16 16 16 15 14 14 13 12 11 10 10 10 10 9 10 10
11 16 19 19 18 17 17 16 15 14 13 12 12 13 13 13 14 14 14 14 14 14 14 14 15 15 15 15 14 13 13 12 11 11 10 8 8 9 9 9 10 10 10
13 16 17 19 18 18 17 16 15 14 13 12 12 12 13 13 13 13 13 13 13 13 13 14 14 14 14 13 12 10 10 9 8 8 8 7 6 8 9 9 10 10 10
11 15 17 19 19 18 17 16 14 13 12 11 12 12 12 13 13 13 12 13 13 13 13 13 13 12 12 11 10 9 8 8 7 7 7 6 6 8 10 10 10 10 10
9 14 18 19 19 18 17 16 14 13 12 11 12 12 12 12 13 13 12 12 12 11 11 11 11 10 10 9 9 8 8 8 8 7 7 6 6 9 10 11 10 10 10
9 13 18 19 19 18 17 15 14 13 12 11 11 11 12 13 13 12 12 11 10 10 10 10 9 9 8 8 9 8 8 8 8 7 6 6 6 8 9 9 9 8 8
9 12 17 19 19 18 16 15 14 13 12 11 11 11 12 12 12 11 11 10 9 8 8 8 8 7 7 7 8 8 8 8 7 6 5 5 5 7 8 8 8 7 7
9 10 13 16 17 17 16 15 14 13 11 10 11 10 11 12 11 10 10 9 8 7 6 6 5 5 5 5 6 6 6 6 6 4 3 3 4 5 5 5 5 6 6
6 7 9 13 14 15 15 15 14 13 11 10 11 11 11 11 10 10 9 8 7 6 5 4 3 3 3 4 4 4 5 5 4 2 2 1 2 3 3 3 4 4 4
8 6 7 9 11 13 13 13 13 12 11 11 11 11 10 9 8 8 8 7 6 5 4 3 2 1 2 3 3 3 3 3 2 2 3 3 3 2 2 2 2 2 3
10 8 7 8 9 11 10 11 11 10 10 10 10 10 9 7 7 6 6 6 5 5 4 4 3 1 0 1 1 0 1 3 4 4 5 5 5 4 4 3 3 3 3
10 9 8 7 9 9 8 9 8 8 9 9 10 10 8 7 5 5 4 4 4 4 4 4 3 2 2 1 2 2 3 3 5 7 8 8 8 7 6 5 5 5 4
10 9 8 8 8 9 9 8 8 8 8 8 10 10 9 6 5 5 5 6 6 5 5 5 4 5 4 4 4 4 4 5 7 9 10 11 10 10 9 8 8 7 7
10 10 9 8 8 8 7 7 8 8 9 10 10 11 11 8 6 6 6 7 7 7 7 6 6 6 6 6 6 6 6 8 9 10 12 13 13 13 12 12 11 10 9
10 10 9 9 8 9 6 6 7 9 10 10 11 12 13 12 9 7 6 7 9 10 10 9 8 6 6 6 6 8 8 9 10 12 13 15 16 16 15 15 14 13 12
9 8 8 9 8 8 7 8 8 10 10 9 11 13 14 13 12 10 6 6 10 12 11 9 8 6 5 5 5 8 9 10 11 13 14 15 16 18 19 18 18 17 16
6 7 7 7 8 9 7 8 7 9 10 10 11 11 13 15 14 11 7 7 11 11 9 5 5 4 5 5 6 6 7 9 11 13 14 15 16 17 19 20 21 20 18
5 6 6 5 6 7 7 6 7 7 8 9 9 10 11 13 14 12 8 9 11 8 7 6 6 5 6 6 6 6 6 6 8 11 11 15 17 18 18 20 22 22 21
3 4 4 4 3 4 4 3 3 3 4 6 7 8 9 10 11 11 8 9 9 5 6 6 7 6 6 6 6 6 6 7 6 7 9 12 14 16 18 18 19 20 22
3 3 3 3 2 3 2 2 2 3 2 3 4 6 7 7 8 9 6 6 6 6 8 8 6 6 6 3 3 5 5 6 7 7 6 7 9 13 14 16 16 17 17
3 4 3 3 2 2 2 2 2 2 2 2 1 2 3 4 5 6 5 4 4 5 6 6 6 4 4 4 4 3 4 4 5 6 5 6 6 7 8 12 13 15 16
4 3 4 4 3 2 1 2 2 2 1 1 0 0 1 2 2 3 4 4 3 5 5 6 6 7 6 4 5 5 4 5 3 3 3 3 4 3 4 6 9 12 14
4 4 5 5 5 4 3 2 3 2 2 1 0 1 2 2 2 2 2 3 2 3 4 5 5 5 6 5 4 6 6 3 3 4 2 2 2 3 4 4 6 9 11
4 5 5 6 6 5 5 3 3 2 1 0 1 2 2 3 4 4 3 2 2 2 3 4 4 4 5 5 4 3 5 4 5 5 5 3 2 2 2 3 3 5 7
5 5 5 6 6 6 6 5 4 3 2 2 2 2 2 2 3 6 5 4 3 2 2 3 3 3 3 4 3 3 3 3 3 5 6 4 4 2 1 1 2 3 5
Wind_Direction
175 167 159 154 147 141 135 129 123 118 114 110 107 106 106 105 103 99 95 90 87 86 88 90 91 92 93 93 93 91 88 85 81 80 78 78 80 82 80 76 69 67 71
155 161 157 155 150 145 139 132 126 121 118 115 113 113 112 111 108 104 100 95 91 90 90 93 94 96 96 95 94 92 89 87 83 80 74 73 78 84 85 81 78 77 74
146 156 155 154 150 146 139 134 129 126 123 121 119 120 118 117 112 108 104 99 95 93 94 96 96 98 98 98 96 93 91 90 86 80 73 67 74 85 88 85 81 80 76
148 152 154 153 150 146 141 137 134 131 128 125 125 126 125 123 117 112 108 103 99 97 97 98 99 100 99 97 94 92 94 95 89 81 72 63 67 85 88 86 83 82 75
143 148 153 151 149 145 142 140 137 134 132 129 129 131 131 129 123 116 110 107 103 102 103 103 103 102 99 95 91 89 96 100 94 85 74 66 68 84 85 84 82 79 75
137 147 153 151 147 144 143 142 140 138 135 131 130 134 135 133 127 119 116 114 111 109 109 109 107 103 98 93 87 89 98 103 100 88 75 73 74 88 87 84 81 78 75
141 147 153 150 147 146 146 145 143 141 139 136 135 136 136 133 128 123 122 120 118 117 115 114 111 105 97 91 87 91 100 110 108 95 81 77 84 91 90 85 82 79 77
141 146 152 150 147 147 148 148 147 146 145 144 143 141 140 136 133 132 132 130 128 126 122 120 115 107 97 90 88 93 102 109 110 99 90 89 92 95 92 87 82 78 78
136 140 147 149 149 150 151 151 150 150 150 149 147 145 142 141 142 142 143 143 142 139 133 128 120 111 97 86 84 92 105 115 116 106 98 101 102 102 99 94 89 85 78
130 135 142 147 149 150 153 155 153 154 155 151 149 146 143 145 149 150 150 154 157 154 148 143 133 114 89 74 75 90 112 123 128 132 138 157 139 122 114 107 102 97 91
152 148 147 146 148 151 155 158 157 157 157 151 149 149 147 149 153 156 161 166 167 167 169 178 181 142 88 66 70 91 128 152 177 201 217 226 223 199 170 153 139 127 117
172 168 159 154 153 154 156 155 155 156 157 155 155 155 156 157 160 163 174 182 184 187 197 215 230 228 145 47 23 9 206 213 222 233 239 243 243 233 219 202 193 185 168
176 175 170 164 161 158 153 155 157 158 161 166 169 169 166 164 167 171 182 199 205 210 220 240 259 261 270 282 290 289 274 247 242 244 246 249 251 246 237 226 219 215 208
178 184 177 171 168 168 163 165 166 167 174 181 185 182 175 174 183 191 199 210 215 220 225 236 246 255 263 268 266 262 263 255 254 251 249 249 251 250 245 237 230 227 222
185 189 184 176 175 174 170 174 178 184 190 195 194 196 193 190 196 204 213 218 223 225 225 231 240 249 259 267 267 257 253 253 255 254 252 251 250 250 248 244 238 234 230
191 193 187 185 183 179 178 182 188 194 198 200 203 207 206 205 205 207 215 221 227 228 227 228 233 240 251 259 266 262 257 254 252 251 251 251 249 246 244 245 243 239 235
195 193 190 190 185 184 187 192 195 198 198 203 212 214 213 214 214 213 215 222 230 231 229 231 237 239 247 250 256 261 259 254 249 248 248 248 247 245 241 242 243 241 238
187 186 190 192 186 191 192 195 197 200 201 210 215 216 217 219 219 215 217 227 232 227 222 221 225 232 241 242 249 253 252 253 250 248 246 244 243 242 241 241 242 243 241
178 176 180 180 177 189 193 195 198 199 203 211 214 218 221 221 220 216 221 229 227 219 218 224 222 217 236 242 245 250 247 245 248 249 243 242 240 239 239 240 240 242 241
148 157 167 165 169 175 174 171 183 196 204 209 214 221 223 223 220 217 223 227 219 215 222 221 228 222 230 240 251 257 252 247 245 242 243 245 243 241 240 239 240 242 241
93 113 132 137 139 142 140 159 177 201 204 207 217 224 225 225 222 217 225 223 215 221 227 224 224 230 237 224 242 273 269 248 244 244 239 241 245 245 243 241 240 240 242
100 98 99 103 100 127 156 156 161 161 175 193 200 214 226 230 229 225 227 227 220 227 233 228 218 224 229 191 199 243 287 299 265 243 236 240 247 247 244 245 244 242 242
97 96 100 91 82 71 97 118 98 90 72 70 23 292 320 276 254 243 241 236 229 224 234 234 224 226 238 222 202 213 241 254 288 285 254 248 253 249 251 253 249 248 247
108 94 88 82 72 56 61 103 145 167 193 207 315 332 356 9 355 327 295 266 250 240 245 248 236 231 233 240 221 225 234 237 253 286 277 268 261 261 265 262 259 255 252
107 94 85 78 64 53 58 81 108 124 164 42 36 28 20 20 19 8 359 347 308 273 266 263 255 240 234 240 231 219 234 242 234 252 273 271 292 277 279 279 285 281 275
101 92 87 81 63 51 58 62 83 99 91 76 39 20 12 12 12 12 10 7 351 327 301 286 273 259 253 249 246 228 218 224 225 236 257 263 266 278 304 316 331 335 324
Height
1532 1535 1539 1542 1545 1547 1549 1550 1551 1552 1553 1553 1553 1553 1553 1554 1554 1555 1555 1556 1556 1556 1557 1557 1558 1558 1559 1560 1560 1561 1561 1561 1562 1562 1562 1563 1563 1563 1563 1563 1563 1563 1563
1531 1535 1539 1543 1545 1548 1550 1551 1552 1553 1554 1554 1554 1554 1555 1556 1556 1557 1557 1558 1558 1558 1558 1559 1559 1560 1560 1561 1562 1562 1563 1563 1564 1564 1564 1564 1565 1565 1565 1565 1565 1565 1565
1531 1535 1539 1543 1546 1548 1550 1552 1553 1554 1555 1555 1555 1556 1557 1557 1558 1559 1559 1560 1560 1560 1560 1560 1561 1561 1562 1563 1564 1564 1565 1565 1566 1566 1566 1567 1567 1567 1567 1567 1567 1567 1567
1533 1536 1540 1543 1547 1549 1551 1553 1554 1555 1555 1556 1557 1557 1558 1559 1560 1561 1561 1562 1562 1562 1562 1562 1563 1563 1564 1565 1566 1566 1567 1567 1568 1568 1568 1568 1569 1569 1569 1569 1569 1569 1569
1534 1537 1540 1544 1547 1549 1551 1553 1555 1556 1556 1557 1558 1559 1560 1561 1562 1563 1563 1563 1564 1564 1564 1565 1565 1566 1566 1567 1568 1568 1569 1569 1570 1570 1570 1570 1570 1571 1571 1571 1571 1571 1571
1534 1538 1541 1545 1548 1550 1552 1554 1555 1556 1557 1558 1559 1560 1561 1562 1563 1564 1565 1565 1566 1566 1566 1567 1567 1568 1569 1569 1570 1570 1571 1571 1572 1572 1572 1572 1572 1572 1573 1572 1572 1572 1572
1535 1539 1542 1545 1548 1551 1553 1554 1556 1557 1558 1560 1561 1562 1562 1563 1564 1565 1566 1567 1567 1568 1568 1568 1569 1570 1570 1571 1571 1572 1572 1573 1573 1573 1573 1574 1574 1574 1574 1573 1573 1573 1572
1536 1540 1543 1546 1549 1551 1553 1555 1557 1558 1559 1561 1562 1563 1564 1564 1565 1566 1567 1568 1569 1569 1570 1570 1571 1571 1572 1572 1573 1573 1574 1574 1574 1575 1575 1575 1575 1575 1575 1574 1574 1573 1572
1537 1540 1544 1547 1549 1552 1554 1556 1557 1559 1560 1561 1562 1563 1564 1565 1566 1567 1568 1569 1570 1570 1571 1571 1572 1572 1573 1573 1574 1574 1575 1575 1575 1576 1576 1576 1576 1575 1575 1575 1574 1573 1572
1538 1541 1544 1547 1549 1552 1554 1556 1558 1559 1560 1562 1563 1564 1565 1566 1567 1568 1568 1569 1570 1571 1572 1572 1573 1573 1573 1574 1574 1575 1575 1576 1576 1576 1576 1576 1576 1576 1575 1575 1574 1573 1572
1538 1541 1544 1547 1549 1552 1554 1556 1557 1559 1560 1562 1563 1564 1565 1566 1567 1568 1569 1569 1570 1571 1572 1572 1573 1573 1574 1574 1574 1575 1575 1576 1576 1576 1576 1576 1576 1576 1575 1574 1574 1573 1572
1538 1541 1543 1546 1549 1551 1553 1555 1557 1558 1560 1561 1562 1564 1565 1566 1567 1567 1568 1569 1570 1571 1571 1572 1573 1573 1573 1574 1574 1574 1575 1575 1575 1576 1576 1576 1575 1575 1575 1574 1573 1573 1572
1537 1540 1543 1545 1548 1550 1552 1554 1556 1558 1559 1561 1562 1563 1564 1565 1566 1567 1568 1568 1569 1570 1571 1571 1572 1572 1573 1573 1573 1573 1573 1574 1574 1574 1575 1575 1574 1574 1574 1573 1573 1572 1571
1537 1539 1542 1544 1547 1549 1552 1554 1555 1557 1559 1560 1561 1562 1563 1564 1565 1566 1567 1568 1568 1569 1570 1570 1571 1571 1571 1572 1572 1572 1572 1572 1572 1572 1573 1573 1573 1573 1572 1572 1571 1571 1570
1536 1538 1541 1543 1546 1548 1550 1552 1554 1556 1558 1559 1560 1561 1562 1563 1564 1565 1566 1566 1567 1567 1568 1568 1569 1569 1569 1570 1570 1570 1570 1570 1570 1570 1570 1570 1570 1570 1570 1570 1569 1569 1568
1535 1537 1540 1542 1544 1547 1549 1551 1553 1555 1556 1557 1558 1559 1560 1561 1562 1563 1564 1565 1565 1566 1566 1566 1567 1567 1567 1567 1567 1567 1567 1567 1567 1567 1567 1567 1568 1567 1567 1567 1567 1567 1566
1534 1536 1538 1541 1543 1545 1547 1549 1551 1553 1554 1556 1557 1558 1558 1559 1560 1561 1562 1562 1563 1564 1564 1564 1564 1564 1564 1564 1564 1564 1564 1564 1564 1564 1564 1564 1564 1564 1564 1564 1564 1563 1563
1533 1535 1537 1539 1541 1543 1545 1547 1549 1551 1552 1553 1555 1556 1556 1557 1558 1559 1559 1560 1561 1561 1561 1561 1561 1561 1561 1561 1561 1561 1561 1560 1560 1560 1560 1560 1560 1560 1560 1560 1560 1560 1559
1531 1533 1535 1537 1539 1541 1543 1545 1547 1548 1550 1551 1552 1553 1554 1555 1555 1556 1556 1557 1557 1557 1557 1558 1557 1557 1557 1557 1557 1556 1556 1556 1556 1555 1555 1555 1555 1555 1555 1555 1555 1555 1555
1529 1531 1533 1535 1537 1539 1541 1543 1544 1545 1546 1548 1549 1550 1551 1551 1552 1552 1553 1553 1554 1553 1553 1554 1554 1553 1553 1553 1552 1551 1551 1551 1550 1550 1550 1550 1550 1550 1550 1549 1549 1549 1550
1526 1528 1530 1532 1534 1536 1538 1539 1541 1542 1543 1544 1545 1546 1547 1548 1548 1548 1549 1549 1549 1549 1549 1550 1549 1549 1548 1549 1547 1545 1545 1545 1544 1544 1544 1544 1544 1544 1544 1543 1543 1543 1543
1523 1525 1527 1529 1531 1533 1534 1536 1537 1539 1540 1541 1541 1542 1543 1543 1544 1544 1544 1544 1544 1544 1544 1545 1544 1544 1543 1544 1543 1541 1539 1538 1537 1538 1538 1538 1538 1538 1538 1538 1537 1537 1537
1520 1522 1524 1526 1528 1529 1531 1532 1534 1535 1535 1536 1537 1538 1538 1539 1539 1539 1539 1539 1539 1539 1539 1539 1539 1538 1538 1538 1538 1538 1535 1532 1532 1532 1532 1532 1532 1532 1532 1531 1531 1530 1530
1518 1519 1521 1523 1524 1526 1527 1528 1529 1530 1531 1532 1533 1533 1533 1534 1534 1534 1534 1534 1533 1533 1533 1533 1533 1533 1532 1532 1532 1532 1531 1530 1528 1525 1526 1527 1527 1526 1526 1525 1524 1524 1523
1515 1516 1518 1519 1521 1522 1523 1524 1525 1526 1527 1527 1528 1528 1528 1529 1528 1528 1528 1528 1528 1527 1527 1527 1527 1527 1527 1526 1526 1526 1525 1525 1524 1522 1520 1520 1521 1521 1520 1519 1518 1517 1517
1511 1513 1515 1516 1517 1518 1519 1520 1521 1521 1522 1522 1523 1523 1523 1523 1523 1523 1523 1522 1522 1522 1522 1521 1521 1521 1521 1521 1520 1520 1520 1519 1518 1518 1515 1514 1514 1514 1514 1513 1513 1512 1510